Find Local Weather

World > North America > United States > Florida

Miami, Florida Regional Weather

Lat: 25.77N, Lon: 80.2W
Wx Zone: FLZ074
Warning FLW WEATHER ALERT - (More Info. Click Here) Warning
Feedback

Miami, FL Regional Weather

Expires:201903191500;;605117
ASUS42 KTBW 191417
RWRFL 
FLORIDA REGIONAL WEATHER ROUNDUP
NATIONAL WEATHER SERVICE TAMPA BAY RUSKIN FL
1000 AM EDT TUE MAR 19 2019

NOTE: "FAIR" INDICATES FEW OR NO CLOUDS BELOW 12,000 FEET WITH NO
SIGNIFICANT WEATHER AND/OR OBSTRUCTIONS TO VISIBILITY.


FLZ067-068-071>074-168-172>174-191500-
SOUTHEAST FLORIDA 
  
CITY           SKY/WX    TMP DP  RH WIND       PRES   REMARKS
W PALM BEACH   LGT RAIN  66  62  87 NE14      30.08R                  
BOCA RATON     HVY RAIN  68  64  88 NE14G31   30.07R VSB 1            
FT LAUDER-EXEC HVY RAIN  66  66 100 N9        30.07R FOG              
FT LAUDERDALE  LGT RAIN  67  65  93 N13G23    30.06R FOG              
POMPANO BEACH  HVY RAIN  67  64  90 NE12G17   30.07R FOG              
PEMBROKE PINES HVY RAIN  65  62  90 N12G25    30.10R FOG              
OPA LOCKA      HVY RAIN  67  65  93 NW12      30.08R FOG              
MIAMI          RAIN      67  67 100 N6        30.06R FOG              
WEST KENDALL   LGT RAIN  67  66  97 N12       30.06R FOG              
HOMESTEAD      RAIN      68  66  94 N12       30.04R                  

STATION/POSITION SKY/WX   TEMP    WIND        PRES    WAVE   SWELL
                          AIR SEA DIR/SP/G            HT/PER HT/PER
                          (F)     (DEG/KT/KT) (MB)    (FT/S) (FT/S)
PORT EVERGLADES            70      20/ 11/ 24 1017.3R
VIRGINIA KEY               69 77   10/  5/ 11 1016.6R
LAKE WORTH                 67 76   40/ 26/ 30 1018.9R
FOWEY ROCKS                69 78   20/ 24/ 25 1017.8R
SETTLEMENT POINT           68      40/ 25/ 31 1017.2F

$$

  

SKY/WX - Weather  TMP - Temperature  DP - Dew Point  RH - Relative Humidity
WIND - Wind Direction/Speed PRES - Barometric Pressure VSB - Visibility
WCI - Wind Chill Index E13G22 Wind - East Wind 13 mph/Gusts of 22 mph